N788DC CYUL-KBOS

Flight info

Callsign N788DC
Flight time N/A
Altitude 35000
Route VIRKA DCT ENE OOSHN5
Aircraft C750/M-SBDE3FGHRWXY/S

Departure

Time 2026-05-08 00:21
Airport Montreal / Pierre Elliott Trudeau International Airport (CYUL)

Arrival

Time N/A
Airport Boston Logan International Airport (KBOS)
Time Latitude Longitude Altitude Speed Heading
2026-05-08 00:10 45.47384 -73.71527 133 ft 0 kts 237°
2026-05-08 00:17 45.47381 -73.71542 133 ft 2 kts 266°
2026-05-08 00:17 45.47390 -73.71583 132 ft 6 kts 301°
2026-05-08 00:17 45.47372 -73.71654 131 ft 10 kts 213°
2026-05-08 00:18 45.47306 -73.71737 129 ft 14 kts 224°
2026-05-08 00:18 45.47301 -73.71770 129 ft 4 kts 28°
2026-05-08 00:18 45.47327 -73.71729 129 ft 7 kts 49°
2026-05-08 00:18 45.47375 -73.71656 131 ft 11 kts 40°
2026-05-08 00:19 45.47440 -73.71572 132 ft 13 kts 42°
2026-05-08 00:19 45.47518 -73.71474 134 ft 15 kts 43°
2026-05-08 00:19 45.47604 -73.71459 135 ft 13 kts
2026-05-08 00:19 45.47641 -73.71493 134 ft 0 kts 287°
2026-05-08 00:20 45.47641 -73.71494 134 ft 0 kts 287°
2026-05-08 00:20 45.47641 -73.71497 134 ft 0 kts 275°
2026-05-08 00:20 45.47657 -73.71549 133 ft 9 kts 304°
2026-05-08 00:20 45.47653 -73.71646 131 ft 14 kts 229°
2026-05-08 00:21 45.47444 -73.71932 125 ft 90 kts 226°
2026-05-08 00:21 45.46742 -73.72803 141 ft 172 kts 220°
2026-05-08 00:21 45.45702 -73.73944 1051 ft 195 kts 227°
2026-05-08 00:21 45.44741 -73.75201 2362 ft 205 kts 220°
2026-05-08 00:22 45.43490 -73.76360 3459 ft 229 kts 222°
2026-05-08 00:22 45.42025 -73.77366 4647 ft 258 kts 192°
2026-05-08 00:22 45.40231 -73.76916 5824 ft 281 kts 155°
2026-05-08 00:22 45.38718 -73.75092 7070 ft 292 kts 138°
2026-05-08 00:23 45.37236 -73.73174 8310 ft 297 kts 136°
2026-05-08 00:23 45.35862 -73.71041 9559 ft 301 kts 134°
2026-05-08 00:23 45.34453 -73.68832 10645 ft 310 kts 134°
2026-05-08 00:23 45.32997 -73.66518 11487 ft 326 kts 134°
2026-05-08 00:24 45.31444 -73.64058 12406 ft 338 kts 134°
2026-05-08 00:24 45.29872 -73.61568 13382 ft 345 kts 134°
2026-05-08 00:24 45.28272 -73.59037 14409 ft 350 kts 135°
2026-05-08 00:24 45.26637 -73.56451 15391 ft 356 kts 135°
2026-05-08 00:25 45.24990 -73.53854 16332 ft 362 kts 136°
2026-05-08 00:25 45.23286 -73.51165 17247 ft 368 kts 136°
2026-05-08 00:25 45.21581 -73.48481 18137 ft 373 kts 136°
2026-05-08 00:25 45.19829 -73.45725 19002 ft 378 kts 137°
2026-05-08 00:26 45.18073 -73.42970 19835 ft 383 kts 137°
2026-05-08 00:26 45.16285 -73.40158 20716 ft 386 kts 137°
2026-05-08 00:26 45.14483 -73.37331 21529 ft 391 kts 137°
2026-05-08 00:26 45.12677 -73.34505 22330 ft 394 kts 138°